This demonstration page uses our WeatherBlox Daily Observations layout. Learn more.

Hourly Observations for July 9, 2015

Temp ( °F °C ) Dew Point ( °F °C ) Humidity (%) Winds ( mph kmh ) Pressure ( in mb ) Visibility ( mi km ) Precip ( " mm )
12:15 am 00:15 Clear 61 16.2 57 13.7 85 85 Calm 30.03 1017 10 16.0934 0 0
12:35 am 00:35 Partly Cloudy 61 16.1 57 13.8 86 86 Calm 30.03 1017 10 16.0934 0 0
12:55 am 00:55 Cloudy 60 15.5 56 13.6 89 89 Calm 30.03 1017 7 11.26538 0 0
1:15 am 01:15 Cloudy 60 15.5 57 14 91 91 Calm 30.03 1017 7 11.26538 0 0
1:35 am 01:35 Cloudy 60 15.5 57 14 91 91 Calm 30.03 1017 7 11.26538 0 0
1:55 am 01:55 Mostly Cloudy 60 15.5 57 14 91 91 N 3 6 30.03 1017 7 11.26538 0 0
2:15 am 02:15 Partly Cloudy 61 16 57 14 88 88 Calm 30.03 1017 7 11.26538 0 0
2:35 am 02:35 Partly Cloudy 60 15.3 57 14 92 92 Calm 30.03 1017 7 11.26538 0 0
2:55 am 02:55 Partly Cloudy with Mist and Fog 58 14.7 56 13.5 93 93 NNE 3 6 30.03 1017 5 8.0467 0 0
3:15 am 03:15 Partly Cloudy with Mist and Fog 58 14.6 56 13.5 93 93 Calm 30.03 1017 5 8.0467 0 0
3:35 am 03:35 Mostly Cloudy 59 14.8 56 13.5 92 92 Calm 30.03 1017 7 11.26538 0 0
3:55 am 03:55 Mostly Cloudy 59 14.8 56 13.5 92 92 Calm 30.03 1017 7 11.26538 0 0
4:15 am 04:15 Partly Cloudy 58 14.7 56 13.5 93 93 Calm 30.03 1017 7 11.26538 0 0
4:35 am 04:35 Partly Cloudy with Mist and Fog 58 14.7 56 13.5 93 93 Calm 30.03 1017 5 8.0467 0 0
4:55 am 04:55 Mostly Cloudy with Mist and Fog 58 14.7 56 13.4 92 92 Calm 30.03 1017 5 8.0467 0 0
5:15 am 05:15 Mostly Cloudy with Mist and Fog 58 14.5 56 13.2 92 92 Calm 30.03 1017 5 8.0467 0 0
5:35 am 05:35 Partly Cloudy with Mist and Fog 58 14.5 56 13.3 93 93 Calm 30.03 1017 5 8.0467 0 0
5:55 am 05:55 Clear with Mist and Fog 58 14.5 56 13.4 93 93 Calm 30.03 1017 5 8.0467 0 0
6:15 am 06:15 Clear with Mist and Fog 57 14 55 12.9 93 93 Calm 30.03 1017 5 8.0467 0 0
6:35 am 06:35 Sunny with Mist and Fog 57 14 55 13 94 94 Calm 30.03 1017 2.5 4.02335 0 0
6:55 am 06:55 Sunny with Mist and Fog 58 14.6 56 13.3 92 92 Calm 30.06 1018 5 8.0467 0 0
7:15 am 07:15 Sunny with Mist and Fog 59 14.9 56 13.6 92 92 Calm 30.06 1018 4 6.43736 0 0
7:35 am 07:35 Sunny with Mist and Fog 60 15.5 57 14 91 91 Calm 30.06 1018 5 8.0467 0 0
7:55 am 07:55 Sunny 61 16.3 57 14.1 87 87 Calm 30.06 1018 7 11.26538 0 0
8:15 am 08:15 Sunny 62 16.5 56 13.6 83 83 Calm 30.03 1017 7 11.26538 0 0
8:35 am 08:35 Sunny 62 16.8 57 13.8 83 83 Calm 30.03 1017 7 11.26538 0 0
8:55 am 08:55 Sunny 63 17.3 57 14 81 81 Calm 30.03 1017 7 11.26538 0 0
9:15 am 09:15 Partly Cloudy 65 18.1 58 14.5 80 80 Calm 30.03 1017 10 16.0934 0 0
9:35 am 09:35 Partly Cloudy 67 19.5 58 14.2 72 72 S 6 9 30.03 1017 10 16.0934 0 0
9:55 am 09:55 Sunny 69 20.6 56 13.3 63 63 S 3 6 30 1016 10 16.0934 0 0
10:15 am 10:15 Sunny 70 21 54 12.3 58 58 SSE 5 7 30 1016 10 16.0934 0 0
10:35 am 10:35 Sunny 71 21.5 53 11.7 54 54 SSE 5 7 30 1016 10 16.0934 0 0
10:55 am 10:55 Sunny 71 21.5 52 10.9 51 51 SE 5 7 30 1016 10 16.0934 0 0
11:15 am 11:15 Sunny 72 22 49 9.7 46 46 SSE 5 7 30 1016 10 16.0934 0 0
11:35 am 11:35 Sunny 73 22.9 51 10.3 45 45 SSE 3 6 30 1016 10 16.0934 0 0
11:55 am 11:55 Sunny 73 22.7 50 10.1 45 45 Calm 30 1016 10 16.0934 0 0
12:15 pm 12:15 Sunny 74 23.3 46 8 38 38 Calm 30 1016 10 16.0934 0 0
12:35 pm 12:35 Sunny 75 24 45 7.1 34 34 Calm 29.94 1014 10 16.0934 0 0
12:55 pm 12:55 Sunny 75 23.9 46 8 36 36 Calm 29.94 1014 10 16.0934 0 0
1:15 pm 13:15 Sunny 76 24.4 45 7.2 33 33 SE 5 7 29.94 1014 10 16.0934 0 0
1:35 pm 13:35 Sunny 76 24.5 45 7.4 34 34 S 7 11 29.94 1014 10 16.0934 0 0
1:55 pm 13:55 Sunny 76 24.6 47 8.2 35 35 S 7 11 29.94 1014 10 16.0934 0 0
2:15 pm 14:15 Sunny 77 24.9 47 8.3 35 35 SE 5 7 29.91 1013 10 16.0934 0 0
2:35 pm 14:35 Sunny 77 25 48 9.1 37 37 E 7 11 29.91 1013 10 16.0934 0 0
2:55 pm 14:55 Sunny 77 25.1 48 9 36 36 E 5 7 29.91 1013 7 11.26538 0 0
3:15 pm 15:15 Sunny 78 25.3 48 8.8 35 35 S 6 9 29.91 1013 10 16.0934 0 0
3:35 pm 15:35 Sunny 78 25.7 48 8.9 35 35 SE 7 11 29.91 1013 10 16.0934 0 0
3:55 pm 15:55 Sunny 80 26.4 48 9.1 34 34 S 7 11 29.91 1013 10 16.0934 0 0
4:15 pm 16:15 Sunny 79 26.3 46 7.9 31 31 SSW 7 11 29.91 1013 10 16.0934 0 0
4:35 pm 16:35 Sunny 80 26.4 47 8.1 31 31 S 3 6 29.88 1012 10 16.0934 0 0
4:55 pm 16:55 Sunny 80 26.4 49 9.4 34 34 Calm 29.88 1012 10 16.0934 0 0
5:15 pm 17:15 Partly Cloudy 79 26.3 51 10.7 38 38 S 6 9 29.88 1012 10 16.0934 0 0
5:35 pm 17:35 Sunny 80 26.9 53 11.6 39 39 SSE 6 9 29.85 1011 10 16.0934 0 0
5:55 pm 17:55 Sunny 79 26 52 11.3 40 40 SE 6 9 29.88 1012 10 16.0934 0 0
6:15 pm 18:15 Partly Cloudy 79 26.2 53 11.9 41 41 SSE 5 7 29.88 1012 10 16.0934 0 0
6:35 pm 18:35 Mostly Cloudy 78 25.8 55 12.6 44 44 SE 7 11 29.88 1012 10 16.0934 0 0
6:55 pm 18:55 Mostly Cloudy 78 25.7 55 12.8 45 45 ESE 9 15 29.88 1012 10 16.0934 0 0
7:15 pm 19:15 Mostly Cloudy 77 25.1 57 14.1 51 51 SSE 5 7 29.88 1012 10 16.0934 0 0
7:35 pm 19:35 Cloudy 76 24.6 58 14.6 54 54 SSE 7 11 29.88 1012 10 16.0934 0 0
7:55 pm 19:55 Mostly Cloudy 76 24.2 59 15 57 57 SSE 6 9 29.88 1012 10 16.0934 0 0
8:15 pm 20:15 Mostly Cloudy 75 23.7 59 15 58 58 SSE 6 9 29.88 1012 10 16.0934 0 0
8:35 pm 20:35 Mostly Cloudy 74 23.5 59 15.1 59 59 SE 6 9 29.88 1012 10 16.0934 0 0
8:55 pm 20:55 Mostly Cloudy 73 23 60 15.6 63 63 SE 5 7 29.91 1013 10 16.0934 0 0
9:15 pm 21:15 Cloudy 73 22.5 60 15.5 65 65 SE 5 7 29.91 1013 10 16.0934 0 0
9:35 pm 21:35 Cloudy 72 22.1 60 15.3 65 65 SE 6 9 29.91 1013 10 16.0934 0 0
9:55 pm 21:55 Cloudy 70 21.3 60 15.3 69 69 ESE 7 11 29.91 1013 10 16.0934 0 0
10:15 pm 22:15 Partly Cloudy 68 20.1 60 15.5 75 75 SE 7 11 29.91 1013 10 16.0934 0 0
10:35 pm 22:35 Clear 66 19 60 15.3 79 79 E 7 11 29.97 1015 10 16.0934 0 0
10:55 pm 22:55 Clear 65 18.2 59 15.2 83 83 ESE 7 11 29.97 1015 7 11.26538 0 0
11:15 pm 23:15 Clear 65 18.3 60 15.6 84 84 SE 7 11 29.97 1015 10 16.0934 0 0
11:35 pm 23:35 Clear 65 18.2 60 15.4 84 84 SE 7 11 29.97 1015 10 16.0934 0 0
11:55 pm 23:55 Clear 64 18 59 15.1 83 83 SSE 7 11 29.97 1015 10 16.0934 0 0

Powered by AerisWeather